This demonstration page uses our WeatherBlox Daily Observations layout. Learn more.

Left ArrowRight Arrow

Hourly Observations for August 7, 2021

Temp ( °F °C ) Dew Point ( °F °C ) Humidity (%) Winds ( mph kmh ) Pressure ( in mb ) Visibility ( mi km ) Precip ( " mm )
12:08 am 00:08 Clear with Nearby Thunderstorms 79 26 63 17 58 58 SW 10 17 29.76 1008 10 16 0.00 0.00
12:36 am 00:36 Mostly Cloudy with Thunderstorms 81 27 63 17 54 54 W 7 11 29.80 1009 9 14 0.00 0.00
12:56 am 00:56 Mostly Cloudy with Nearby Thunderstorms 74 23.3 67 19.4 79 79 NW 8 13 29.87 1011 10 16 0.00 0.00
1:26 am 01:26 Partly Cloudy with Light Rain 72 22 68 20 88 88 ESE 9 15 29.82 1010 10 16 0.00 0.00
1:53 am 01:53 Mostly Clear with Nearby Thunderstorms 73 23 66 19 78 78 SE 13 20 29.79 1009 10 16 0.00 0.00
1:56 am 01:56 Mostly Clear with Nearby Thunderstorms 72 22.2 67 19.4 84 84 SE 13 20 29.82 1010 10 16 0.00 0.00
2:15 am 02:15 Partly Cloudy with Light Rain 73 23 66 19 78 78 E 8 13 29.78 1009 10 16 0.00 0.00
2:56 am 02:56 Mostly Cloudy with Light Rain 72 22.2 67 19.4 84 84 E 15 24 29.74 1007 10 16 0.00 0.00
3:56 am 03:56 Clear 74 23.3 66 18.9 76 76 W 6 9 29.75 1008 10 16 0.00 0.00
4:21 am 04:21 Clear 73 23 66 19 78 78 SSE 14 22 29.71 1006 10 16 0.00 0.00
4:56 am 04:56 Clear 73 22.8 66 18.9 79 79 SSE 9 15 29.74 1007 10 16 0.00 0.00
5:56 am 05:56 Clear 73 22.8 66 18.9 79 79 S 12 19 29.73 1007 10 16 0.00 0.00
6:56 am 06:56 Sunny 72 22.2 66 18.9 82 82 SSE 7 11 29.72 1007 10 16 0.00 0.00
7:56 am 07:56 Sunny 71 21.7 67 19.4 87 87 Calm 29.72 1007 10 16 0.00 0.00
8:56 am 08:56 Mostly Sunny 73 22.8 65 18.3 76 76 W 8 13 29.77 1008 10 16 0.00 0.00
9:56 am 09:56 Sunny 74 23.3 66 18.9 76 76 W 5 7 29.78 1008 10 16 0.00 0.00
10:13 am 10:13 Partly Cloudy with Nearby Thunderstorms 75 24 64 18 69 69 W 5 7 29.75 1007 10 16 0.00 0.00
10:39 am 10:39 Cloudy with Nearby Thunderstorms 73 23 66 19 78 78 SSW 5 7 29.77 1008 9 14 0.00 0.00
10:56 am 10:56 Cloudy with Light Rain 72 22.2 67 19.4 84 84 ESE 3 6 29.80 1009 10 16 0.00 0.00
11:13 am 11:13 Cloudy with Nearby Thunderstorms 72 22 66 19 83 83 SE 8 13 29.78 1009 10 16 0.00 0.00
11:56 am 11:56 Mostly Cloudy with Light Rain 71 21.7 68 20 90 90 Calm 29.79 1009 10 16 0.06 1.52
12:05 pm 12:05 Mostly Cloudy with Nearby Thunderstorms 72 22 68 20 88 88 W 5 7 29.77 1008 10 16 0.00 0.00
12:56 pm 12:56 Partly Cloudy with Thunderstorms 72 22.2 68 20 87 87 SSW 5 7 29.79 1009 10 16 0.02 0.51
1:56 pm 13:56 Sunny with Thunderstorms 75 23.9 69 20.6 82 82 S 3 6 29.78 1009 9 14 0.00 0.00
2:15 pm 14:15 Sunny 79 26 72 22 79 79 SSE 14 22 29.69 1006 10 16 0.00 0.00
2:28 pm 14:28 Sunny with Nearby Thunderstorms 79 26 70 21 74 74 SSE 15 24 29.68 1005 10 16 0.00 0.00
2:43 pm 14:43 Sunny 81 27 72 22 74 74 SE 14 22 29.67 1005 10 16 0.00 0.00
2:56 pm 14:56 Sunny with Nearby Thunderstorms 82 27.8 71 21.7 69 69 SSE 17 28 29.73 1007 10 16 0.00 0.00
3:28 pm 15:28 Sunny 84 29 72 22 66 66 S 16 26 29.68 1005 10 16 0.00 0.00
3:56 pm 15:56 Sunny 84 28.9 71 21.7 65 65 S 13 20 29.76 1008 10 16 0.00 0.00
4:56 pm 16:56 Mostly Sunny 85 29.4 71 21.7 63 63 SSE 8 13 29.73 1007 10 16 0.00 0.00
5:56 pm 17:56 Sunny 84 28.9 70 21.1 63 63 Calm 29.72 1007 10 16 0.00 0.00
6:56 pm 18:56 Sunny 83 28.3 71 21.7 67 67 ENE 5 7 29.71 1006 10 16 0.00 0.00
7:56 pm 19:56 Sunny 80 26.7 73 22.8 79 79 E 8 13 29.68 1005 10 16 0.00 0.00
8:56 pm 20:56 Mostly Cloudy 78 25.6 72 22.2 82 82 Calm 29.67 1005 10 16 0.00 0.00
9:56 pm 21:56 Mostly Clear 75 23.9 69 20.6 82 82 SSE 5 7 29.69 1005 10 16 0.00 0.00
10:56 pm 22:56 Clear 71 21.7 67 19.4 87 87 ESE 9 15 29.71 1006 10 16 0.00 0.00
11:56 pm 23:56 Clear 70 21.1 66 18.9 87 87 SE 7 11 29.72 1007 10 16 0.00 0.00

Powered by AerisWeather